Data supplied by UK-AIR on 14/3/2019
All Data GMT hour ending 
Status: R =Ratified P=Provisional,P*=As supplied
,,Borehamwood Meadow Park,,,,,,,,,,,,,,,,,,,,,,,
Date,time,"Nitric oxide",status,unit,"Nitrogen dioxide",status,unit,"Nitrogen oxides as nitrogen dioxide",status,unit
 
01-01-2018,01:00,0.25166,R,ugm-3,4.75500,R,ugm-3,5.14087,R,ugm-3
01-01-2018,02:00,0.12583,R,ugm-3,6.87575,R,ugm-3,7.06869,R,ugm-3
01-01-2018,03:00,0.28312,R,ugm-3,5.78313,R,ugm-3,6.21723,R,ugm-3
01-01-2018,04:00,0.22020,R,ugm-3,3.75899,R,ugm-3,4.09663,R,ugm-3
01-01-2018,05:00,0.18874,R,ugm-3,3.27707,R,ugm-3,3.56647,R,ugm-3
01-01-2018,06:00,0.15729,R,ugm-3,4.09644,R,ugm-3,4.33760,R,ugm-3
01-01-2018,07:00,0.28312,R,ugm-3,6.21689,R,ugm-3,6.65099,R,ugm-3
01-01-2018,08:00,0.40894,R,ugm-3,15.18112,R,ugm-3,15.80816,R,ugm-3
01-01-2018,09:00,0.91226,R,ugm-3,22.60264,R,ugm-3,24.00141,R,ugm-3
01-01-2018,10:00,1.50994,R,ugm-3,25.10808,R,ugm-3,27.42330,R,ugm-3
01-01-2018,11:00,2.73677,R,ugm-3,33.73361,R,ugm-3,37.92994,R,ugm-3
01-01-2018,12:00,6.60600,R,ugm-3,49.34431,R,ugm-3,59.47337,R,ugm-3
01-01-2018,13:00,2.64240,R,ugm-3,27.56469,R,ugm-3,31.61631,R,ugm-3
01-01-2018,14:00,0.59769,R,ugm-3,8.67449,R,ugm-3,9.59093,R,ugm-3
01-01-2018,15:00,0.47186,R,ugm-3,6.40945,R,ugm-3,7.13295,R,ugm-3
01-01-2018,16:00,0.53477,R,ugm-3,9.83126,R,ugm-3,10.65123,R,ugm-3
01-01-2018,17:00,0.56623,R,ugm-3,13.97604,R,ugm-3,14.84425,R,ugm-3
01-01-2018,18:00,0.44040,R,ugm-3,10.74709,R,ugm-3,11.42236,R,ugm-3
01-01-2018,19:00,0.37749,R,ugm-3,8.57836,R,ugm-3,9.15717,R,ugm-3
01-01-2018,20:00,0.22020,R,ugm-3,5.25305,R,ugm-3,5.59069,R,ugm-3
01-01-2018,21:00,0.15729,R,ugm-3,3.85546,R,ugm-3,4.09663,R,ugm-3
01-01-2018,22:00,0.12583,R,ugm-3,3.42174,R,ugm-3,3.61467,R,ugm-3
01-01-2018,23:00,0.12583,R,ugm-3,3.66271,R,ugm-3,3.85565,R,ugm-3
01-01-2018,24:00,0.00000,R,ugm-3,2.55437,R,ugm-3,2.55437,R,ugm-3
02-01-2018,01:00,0.04196,R,ugm-3,3.21455,R,ugm-3,3.27889,R,ugm-3
02-01-2018,02:00,0.00000,R,ugm-3,4.95048,R,ugm-3,4.95048,R,ugm-3
02-01-2018,03:00,0.12589,R,ugm-3,4.38778,R,ugm-3,4.58081,R,ugm-3
02-01-2018,04:00,0.25177,R,ugm-3,6.31640,R,ugm-3,6.70244,R,ugm-3
02-01-2018,05:00,0.28324,R,ugm-3,7.61827,R,ugm-3,8.05257,R,ugm-3
02-01-2018,06:00,0.53501,R,ugm-3,9.83606,R,ugm-3,10.65640,R,ugm-3
02-01-2018,07:00,1.16444,R,ugm-3,15.91092,R,ugm-3,17.69637,R,ugm-3
02-01-2018,08:00,7.08106,R,ugm-3,47.00533,R,ugm-3,57.86280,R,ugm-3
02-01-2018,09:00,19.26047,R,ugm-3,65.16980,R,ugm-3,94.70211,R,ugm-3
02-01-2018,10:00,23.03703,R,ugm-3,64.53858,R,ugm-3,99.86154,R,ugm-3
02-01-2018,11:00,24.67354,R,ugm-3,67.47805,R,ugm-3,105.31029,R,ugm-3
02-01-2018,12:00,11.48704,R,ugm-3,55.82431,R,ugm-3,73.43753,R,ugm-3
02-01-2018,13:00,7.30136,R,ugm-3,46.47466,R,ugm-3,57.66992,R,ugm-3
02-01-2018,14:00,3.24155,R,ugm-3,27.96327,R,ugm-3,32.93358,R,ugm-3
02-01-2018,15:00,2.17152,R,ugm-3,25.98753,R,ugm-3,29.31715,R,ugm-3
02-01-2018,16:00,1.29033,R,ugm-3,19.09323,R,ugm-3,21.07170,R,ugm-3
02-01-2018,17:00,1.32180,R,ugm-3,21.35949,R,ugm-3,23.38621,R,ugm-3
02-01-2018,18:00,1.16444,R,ugm-3,22.66158,R,ugm-3,24.44703,R,ugm-3
02-01-2018,19:00,1.47915,R,ugm-3,27.91709,R,ugm-3,30.18509,R,ugm-3
02-01-2018,20:00,1.16444,R,ugm-3,29.36402,R,ugm-3,31.14947,R,ugm-3
02-01-2018,21:00,0.75531,R,ugm-3,19.33494,R,ugm-3,20.49307,R,ugm-3
02-01-2018,22:00,0.44060,R,ugm-3,11.52383,R,ugm-3,12.19941,R,ugm-3
02-01-2018,23:00,0.56649,R,ugm-3,14.85080,R,ugm-3,15.71939,R,ugm-3
02-01-2018,24:00,0.25177,R,ugm-3,3.80901,R,ugm-3,4.19505,R,ugm-3
03-01-2018,01:00,0.04198,R,ugm-3,1.86533,R,ugm-3,1.92970,R,ugm-3
03-01-2018,02:00,0.00000,R,ugm-3,4.50262,R,ugm-3,4.50262,R,ugm-3
03-01-2018,03:00,0.00000,R,ugm-3,1.64024,R,ugm-3,1.64024,R,ugm-3
03-01-2018,04:00,0.00000,R,ugm-3,1.35079,R,ugm-3,1.35079,R,ugm-3
03-01-2018,05:00,0.03149,R,ugm-3,2.02615,R,ugm-3,2.07442,R,ugm-3
03-01-2018,06:00,0.06297,R,ugm-3,2.21908,R,ugm-3,2.31563,R,ugm-3
03-01-2018,07:00,0.34634,R,ugm-3,4.63089,R,ugm-3,5.16194,R,ugm-3
03-01-2018,08:00,0.47228,R,ugm-3,6.84990,R,ugm-3,7.57406,R,ugm-3
03-01-2018,09:00,0.69268,R,ugm-3,8.34517,R,ugm-3,9.40727,R,ugm-3
03-01-2018,10:00,0.69268,R,ugm-3,8.58638,R,ugm-3,9.64848,R,ugm-3
03-01-2018,11:00,0.91308,R,ugm-3,7.38008,R,ugm-3,8.78012,R,ugm-3
03-01-2018,12:00,0.94457,R,ugm-3,5.93277,R,ugm-3,7.38109,R,ugm-3
03-01-2018,13:00,0.81863,R,ugm-3,5.25752,R,ugm-3,6.51272,R,ugm-3
03-01-2018,14:00,0.78714,R,ugm-3,5.78822,R,ugm-3,6.99515,R,ugm-3
03-01-2018,15:00,0.75565,R,ugm-3,6.94607,R,ugm-3,8.10472,R,ugm-3
03-01-2018,16:00,0.91308,R,ugm-3,10.61232,R,ugm-3,12.01236,R,ugm-3
03-01-2018,17:00,0.75565,R,ugm-3,10.99843,R,ugm-3,12.15708,R,ugm-3
03-01-2018,18:00,0.62971,R,ugm-3,9.93724,R,ugm-3,10.90278,R,ugm-3
03-01-2018,19:00,0.56674,R,ugm-3,8.63476,R,ugm-3,9.50375,R,ugm-3
03-01-2018,20:00,0.44080,R,ugm-3,7.95951,R,ugm-3,8.63539,R,ugm-3
03-01-2018,21:00,0.28337,R,ugm-3,7.76671,R,ugm-3,8.20121,R,ugm-3
03-01-2018,22:00,0.25189,R,ugm-3,7.91147,R,ugm-3,8.29769,R,ugm-3
03-01-2018,23:00,0.34634,R,ugm-3,9.59985,R,ugm-3,10.13090,R,ugm-3
03-01-2018,24:00,0.18891,R,ugm-3,7.42912,R,ugm-3,7.71878,R,ugm-3
04-01-2018,01:00,0.21000,R,ugm-3,6.37086,R,ugm-3,6.69286,R,ugm-3
04-01-2018,02:00,0.16800,R,ugm-3,7.85106,R,ugm-3,8.10865,R,ugm-3
04-01-2018,03:00,0.09450,R,ugm-3,4.24729,R,ugm-3,4.39219,R,ugm-3
04-01-2018,04:00,0.12600,R,ugm-3,4.39205,R,ugm-3,4.58525,R,ugm-3
04-01-2018,05:00,0.25200,R,ugm-3,6.51562,R,ugm-3,6.90201,R,ugm-3
04-01-2018,06:00,0.63000,R,ugm-3,17.03716,R,ugm-3,18.00314,R,ugm-3
04-01-2018,07:00,1.16549,R,ugm-3,35.71545,R,ugm-3,37.50252,R,ugm-3
04-01-2018,08:00,5.48096,R,ugm-3,61.48483,R,ugm-3,69.88886,R,ugm-3
04-01-2018,09:00,10.83593,R,ugm-3,69.20171,R,ugm-3,85.81657,R,ugm-3
04-01-2018,10:00,10.26893,R,ugm-3,55.35003,R,ugm-3,71.09551,R,ugm-3
04-01-2018,11:00,3.81147,R,ugm-3,26.97656,R,ugm-3,32.82074,R,ugm-3
04-01-2018,12:00,1.63799,R,ugm-3,12.83697,R,ugm-3,15.34852,R,ugm-3
04-01-2018,13:00,0.91349,R,ugm-3,7.04584,R,ugm-3,8.44651,R,ugm-3
04-01-2018,14:00,0.50400,R,ugm-3,3.61940,R,ugm-3,4.39219,R,ugm-3
04-01-2018,15:00,0.53550,R,ugm-3,4.63295,R,ugm-3,5.45403,R,ugm-3
04-01-2018,16:00,0.56700,R,ugm-3,7.04621,R,ugm-3,7.91559,R,ugm-3
04-01-2018,17:00,0.50400,R,ugm-3,7.23934,R,ugm-3,8.01212,R,ugm-3
04-01-2018,18:00,0.66150,R,ugm-3,9.79726,R,ugm-3,10.81154,R,ugm-3
04-01-2018,19:00,0.63000,R,ugm-3,13.80335,R,ugm-3,14.76933,R,ugm-3
04-01-2018,20:00,0.66150,R,ugm-3,14.86516,R,ugm-3,15.87944,R,ugm-3
04-01-2018,21:00,0.50400,R,ugm-3,13.90002,R,ugm-3,14.67280,R,ugm-3
04-01-2018,22:00,0.47250,R,ugm-3,14.09311,R,ugm-3,14.81760,R,ugm-3
04-01-2018,23:00,0.44100,R,ugm-3,15.54112,R,ugm-3,16.21730,R,ugm-3
04-01-2018,24:00,0.15750,R,ugm-3,10.90790,R,ugm-3,11.14940,R,ugm-3
05-01-2018,01:00,0.25211,R,ugm-3,14.55089,R,ugm-3,14.93745,R,ugm-3
05-01-2018,02:00,0.21009,R,ugm-3,11.58919,R,ugm-3,11.91133,R,ugm-3
05-01-2018,03:00,0.31514,R,ugm-3,12.55487,R,ugm-3,13.03808,R,ugm-3
05-01-2018,04:00,0.28363,R,ugm-3,8.83664,R,ugm-3,9.27152,R,ugm-3
05-01-2018,05:00,0.25211,R,ugm-3,8.25720,R,ugm-3,8.64376,R,ugm-3
05-01-2018,06:00,0.40968,R,ugm-3,14.58292,R,ugm-3,15.21109,R,ugm-3
05-01-2018,07:00,1.57570,R,ugm-3,36.93965,R,ugm-3,39.35568,R,ugm-3
05-01-2018,08:00,5.26284,R,ugm-3,58.03832,R,ugm-3,66.10789,R,ugm-3
05-01-2018,09:00,11.66018,R,ugm-3,69.91104,R,ugm-3,87.78973,R,ugm-3
05-01-2018,10:00,7.05914,R,ugm-3,49.24789,R,ugm-3,60.07174,R,ugm-3
05-01-2018,11:00,5.98766,R,ugm-3,39.54284,R,ugm-3,48.72379,R,ugm-3
05-01-2018,12:00,2.36355,R,ugm-3,14.67754,R,ugm-3,18.30160,R,ugm-3
05-01-2018,13:00,1.16602,R,ugm-3,7.96655,R,ugm-3,9.75442,R,ugm-3
05-01-2018,14:00,1.22905,R,ugm-3,9.31858,R,ugm-3,11.20309,R,ugm-3
05-01-2018,15:00,1.00845,R,ugm-3,9.80169,R,ugm-3,11.34796,R,ugm-3
05-01-2018,16:00,0.85088,R,ugm-3,11.54026,R,ugm-3,12.84492,R,ugm-3
05-01-2018,17:00,0.81936,R,ugm-3,16.41750,R,ugm-3,17.67384,R,ugm-3
05-01-2018,18:00,1.13450,R,ugm-3,27.13738,R,ugm-3,28.87693,R,ugm-3
05-01-2018,19:00,1.13450,R,ugm-3,27.08909,R,ugm-3,28.82864,R,ugm-3
05-01-2018,20:00,3.40351,R,ugm-3,50.84510,R,ugm-3,56.06374,R,ugm-3
05-01-2018,21:00,36.08353,R,ugm-3,64.04356,R,ugm-3,119.37086,R,ugm-3
05-01-2018,22:00,49.16183,R,ugm-3,59.00837,R,ugm-3,134.38879,R,ugm-3
05-01-2018,23:00,49.54000,R,ugm-3,53.64789,R,ugm-3,129.60817,R,ugm-3
05-01-2018,24:00,45.12804,R,ugm-3,45.00855,R,ugm-3,114.20391,R,ugm-3
06-01-2018,01:00,53.80815,R,ugm-3,42.20619,R,ugm-3,124.71087,R,ugm-3
06-01-2018,02:00,65.83090,R,ugm-3,45.15792,R,ugm-3,146.09723,R,ugm-3
06-01-2018,03:00,64.66436,R,ugm-3,40.42440,R,ugm-3,139.57504,R,ugm-3
06-01-2018,04:00,73.08239,R,ugm-3,35.24695,R,ugm-3,147.30505,R,ugm-3
06-01-2018,05:00,71.47445,R,ugm-3,34.52379,R,ugm-3,144.11642,R,ugm-3
06-01-2018,06:00,47.89135,R,ugm-3,35.94730,R,ugm-3,109.37968,R,ugm-3
06-01-2018,07:00,18.66470,R,ugm-3,35.92679,R,ugm-3,64.54560,R,ugm-3
06-01-2018,08:00,1.70252,R,ugm-3,28.06799,R,ugm-3,30.67849,R,ugm-3
06-01-2018,09:00,3.75186,R,ugm-3,31.39961,R,ugm-3,37.15237,R,ugm-3
06-01-2018,10:00,10.08903,R,ugm-3,36.46640,R,ugm-3,51.93602,R,ugm-3
06-01-2018,11:00,10.37278,R,ugm-3,35.30662,R,ugm-3,51.21133,R,ugm-3
06-01-2018,12:00,8.76484,R,ugm-3,26.99839,R,ugm-3,40.43763,R,ugm-3
06-01-2018,13:00,2.01781,R,ugm-3,14.58848,R,ugm-3,17.68240,R,ugm-3
06-01-2018,14:00,1.79711,R,ugm-3,15.55494,R,ugm-3,18.31047,R,ugm-3
06-01-2018,15:00,2.01781,R,ugm-3,18.06698,R,ugm-3,21.16091,R,ugm-3
06-01-2018,16:00,0.72515,R,ugm-3,11.20783,R,ugm-3,12.31971,R,ugm-3
06-01-2018,17:00,0.72515,R,ugm-3,10.91795,R,ugm-3,12.02983,R,ugm-3
06-01-2018,18:00,0.66209,R,ugm-3,11.01464,R,ugm-3,12.02983,R,ugm-3
06-01-2018,19:00,0.53598,R,ugm-3,10.09682,R,ugm-3,10.91864,R,ugm-3
06-01-2018,20:00,0.47292,R,ugm-3,9.27557,R,ugm-3,10.00070,R,ugm-3
06-01-2018,21:00,0.34681,R,ugm-3,8.11618,R,ugm-3,8.64795,R,ugm-3
06-01-2018,22:00,0.22070,R,ugm-3,7.29499,R,ugm-3,7.63339,R,ugm-3
06-01-2018,23:00,0.25223,R,ugm-3,7.68146,R,ugm-3,8.06820,R,ugm-3
06-01-2018,24:00,0.25223,R,ugm-3,6.32871,R,ugm-3,6.71545,R,ugm-3
07-01-2018,01:00,0.25234,R,ugm-3,5.60675,R,ugm-3,5.99366,R,ugm-3
07-01-2018,02:00,0.16823,R,ugm-3,6.18685,R,ugm-3,6.44480,R,ugm-3
07-01-2018,03:00,0.18925,R,ugm-3,4.68842,R,ugm-3,4.97861,R,ugm-3
07-01-2018,04:00,0.18925,R,ugm-3,3.96338,R,ugm-3,4.25357,R,ugm-3
07-01-2018,05:00,0.25234,R,ugm-3,4.15667,R,ugm-3,4.54358,R,ugm-3
07-01-2018,06:00,0.28388,R,ugm-3,4.39832,R,ugm-3,4.83360,R,ugm-3
07-01-2018,07:00,0.12617,R,ugm-3,3.57675,R,ugm-3,3.77021,R,ugm-3
07-01-2018,08:00,0.22080,R,ugm-3,4.78506,R,ugm-3,5.12361,R,ugm-3
07-01-2018,09:00,0.44159,R,ugm-3,6.33161,R,ugm-3,7.00872,R,ugm-3
07-01-2018,10:00,0.82010,R,ugm-3,6.42795,R,ugm-3,7.68542,R,ugm-3
07-01-2018,11:00,1.29324,R,ugm-3,5.75082,R,ugm-3,7.73376,R,ugm-3
07-01-2018,12:00,1.32478,R,ugm-3,5.75079,R,ugm-3,7.78209,R,ugm-3
07-01-2018,13:00,1.51404,R,ugm-3,6.62067,R,ugm-3,8.94216,R,ugm-3
07-01-2018,14:00,1.16707,R,ugm-3,5.84760,R,ugm-3,7.63708,R,ugm-3
07-01-2018,15:00,0.91473,R,ugm-3,6.71788,R,ugm-3,8.12044,R,ugm-3
07-01-2018,16:00,0.53622,R,ugm-3,8.50665,R,ugm-3,9.32884,R,ugm-3
07-01-2018,17:00,0.28388,R,ugm-3,10.05363,R,ugm-3,10.48891,R,ugm-3
07-01-2018,18:00,0.25234,R,ugm-3,10.58535,R,ugm-3,10.97227,R,ugm-3
07-01-2018,19:00,0.25234,R,ugm-3,11.45540,R,ugm-3,11.84231,R,ugm-3
07-01-2018,20:00,0.25234,R,ugm-3,9.61863,R,ugm-3,10.00555,R,ugm-3
07-01-2018,21:00,0.18925,R,ugm-3,9.61869,R,ugm-3,9.90888,R,ugm-3
07-01-2018,22:00,0.22080,R,ugm-3,9.95701,R,ugm-3,10.29556,R,ugm-3
07-01-2018,23:00,0.18925,R,ugm-3,9.23200,R,ugm-3,9.52219,R,ugm-3
07-01-2018,24:00,0.12617,R,ugm-3,8.12033,R,ugm-3,8.31379,R,ugm-3
08-01-2018,01:00,0.12623,R,ugm-3,7.99531,R,ugm-3,8.18885,R,ugm-3
08-01-2018,02:00,0.12623,R,ugm-3,9.67177,R,ugm-3,9.86531,R,ugm-3
08-01-2018,03:00,0.15778,R,ugm-3,7.93080,R,ugm-3,8.17273,R,ugm-3
08-01-2018,04:00,0.12623,R,ugm-3,7.88247,R,ugm-3,8.07602,R,ugm-3
08-01-2018,05:00,0.15778,R,ugm-3,8.70455,R,ugm-3,8.94648,R,ugm-3
08-01-2018,06:00,0.37868,R,ugm-3,10.30022,R,ugm-3,10.88086,R,ugm-3
08-01-2018,07:00,1.35694,R,ugm-3,16.19924,R,ugm-3,18.27984,R,ugm-3
08-01-2018,08:00,1.38849,R,ugm-3,20.50319,R,ugm-3,22.63219,R,ugm-3
08-01-2018,09:00,7.06869,R,ugm-3,29.92845,R,ugm-3,40.76695,R,ugm-3
08-01-2018,10:00,6.50067,R,ugm-3,31.52479,R,ugm-3,41.49234,R,ugm-3
08-01-2018,11:00,5.86953,R,ugm-3,28.86556,R,ugm-3,37.86539,R,ugm-3
08-01-2018,12:00,10.28746,R,ugm-3,27.50774,R,ugm-3,43.28164,R,ugm-3
08-01-2018,13:00,8.01539,R,ugm-3,26.92936,R,ugm-3,39.21945,R,ugm-3
08-01-2018,14:00,7.92072,R,ugm-3,23.54429,R,ugm-3,35.68921,R,ugm-3
08-01-2018,15:00,9.71944,R,ugm-3,26.05745,R,ugm-3,40.96039,R,ugm-3
08-01-2018,16:00,10.22435,R,ugm-3,30.84459,R,ugm-3,46.52171,R,ugm-3
08-01-2018,17:00,4.13392,R,ugm-3,27.89985,R,ugm-3,34.23843,R,ugm-3
08-01-2018,18:00,2.71387,R,ugm-3,27.99777,R,ugm-3,32.15898,R,ugm-3
08-01-2018,19:00,2.14585,R,ugm-3,24.17786,R,ugm-3,27.46812,R,ugm-3
08-01-2018,20:00,2.14585,R,ugm-3,23.25903,R,ugm-3,26.54929,R,ugm-3
08-01-2018,21:00,2.01962,R,ugm-3,20.30922,R,ugm-3,23.40593,R,ugm-3
08-01-2018,22:00,2.17741,R,ugm-3,22.34018,R,ugm-3,25.67882,R,ugm-3
08-01-2018,23:00,1.64095,R,ugm-3,22.05048,R,ugm-3,24.56656,R,ugm-3
08-01-2018,24:00,2.24052,R,ugm-3,27.27278,R,ugm-3,30.70820,R,ugm-3
09-01-2018,01:00,2.14682,R,ugm-3,31.35032,R,ugm-3,34.64206,R,ugm-3
09-01-2018,02:00,2.02054,R,ugm-3,33.47926,R,ugm-3,36.57737,R,ugm-3
09-01-2018,03:00,1.61011,R,ugm-3,26.80277,R,ugm-3,29.27157,R,ugm-3
09-01-2018,04:00,1.73640,R,ugm-3,25.35118,R,ugm-3,28.01362,R,ugm-3
09-01-2018,05:00,2.30467,R,ugm-3,30.09224,R,ugm-3,33.62602,R,ugm-3
09-01-2018,06:00,4.86191,R,ugm-3,33.96082,R,ugm-3,41.41565,R,ugm-3
09-01-2018,07:00,10.16581,R,ugm-3,38.11750,R,ugm-3,53.70487,R,ugm-3
09-01-2018,08:00,21.08933,R,ugm-3,41.68911,R,ugm-3,74.02563,R,ugm-3
09-01-2018,09:00,21.59446,R,ugm-3,38.93089,R,ugm-3,72.04193,R,ugm-3
09-01-2018,10:00,30.11859,R,ugm-3,38.63379,R,ugm-3,84.81498,R,ugm-3
09-01-2018,11:00,34.85422,R,ugm-3,39.06545,R,ugm-3,92.50784,R,ugm-3
09-01-2018,12:00,27.59292,R,ugm-3,36.16828,R,ugm-3,78.47684,R,ugm-3
09-01-2018,13:00,29.51875,R,ugm-3,35.19909,R,ugm-3,80.46054,R,ugm-3
09-01-2018,14:00,33.33882,R,ugm-3,35.53472,R,ugm-3,86.65353,R,ugm-3
09-01-2018,15:00,48.58754,R,ugm-3,38.76419,R,ugm-3,113.26405,R,ugm-3
09-01-2018,16:00,50.92378,R,ugm-3,40.89117,R,ugm-3,118.97322,R,ugm-3
09-01-2018,17:00,50.07137,R,ugm-3,42.82716,R,ugm-3,119.60219,R,ugm-3
09-01-2018,18:00,55.53313,R,ugm-3,46.11283,R,ugm-3,131.26244,R,ugm-3
09-01-2018,19:00,78.10629,R,ugm-3,51.12662,R,ugm-3,170.88792,R,ugm-3
09-01-2018,20:00,72.23411,R,ugm-3,51.61513,R,ugm-3,162.37255,R,ugm-3
09-01-2018,21:00,19.57393,R,ugm-3,50.06054,R,ugm-3,80.07347,R,ugm-3
09-01-2018,22:00,4.35678,R,ugm-3,44.12160,R,ugm-3,50.80190,R,ugm-3
09-01-2018,23:00,5.61961,R,ugm-3,41.12086,R,ugm-3,49.73748,R,ugm-3
09-01-2018,24:00,3.75693,R,ugm-3,36.81629,R,ugm-3,42.57683,R,ugm-3
10-01-2018,01:00,1.72665,R,ugm-3,30.13961,R,ugm-3,32.78710,R,ugm-3
10-01-2018,02:00,1.85299,R,ugm-3,24.91165,R,ugm-3,27.75287,R,ugm-3
10-01-2018,03:00,2.33729,R,ugm-3,24.20133,R,ugm-3,27.78514,R,ugm-3
10-01-2018,04:00,1.80035,R,ugm-3,21.73302,R,ugm-3,24.49352,R,ugm-3
10-01-2018,05:00,1.57925,R,ugm-3,23.28218,R,ugm-3,25.70367,R,ugm-3
10-01-2018,06:00,0.82121,R,ugm-3,19.21663,R,ugm-3,20.47580,R,ugm-3
10-01-2018,07:00,0.85280,R,ugm-3,14.90846,R,ugm-3,16.21606,R,ugm-3
10-01-2018,08:00,1.32657,R,ugm-3,20.08757,R,ugm-3,22.12161,R,ugm-3
10-01-2018,09:00,1.61084,R,ugm-3,21.63635,R,ugm-3,24.10627,R,ugm-3
10-01-2018,10:00,2.55839,R,ugm-3,25.41132,R,ugm-3,29.33413,R,ugm-3
10-01-2018,11:00,2.96900,R,ugm-3,22.74868,R,ugm-3,27.30107,R,ugm-3
10-01-2018,12:00,2.58998,R,ugm-3,15.77847,R,ugm-3,19.74971,R,ugm-3
10-01-2018,13:00,1.86352,R,ugm-3,13.40712,R,ugm-3,16.26447,R,ugm-3
10-01-2018,14:00,2.21095,R,ugm-3,15.63354,R,ugm-3,19.02362,R,ugm-3
10-01-2018,15:00,2.96900,R,ugm-3,24.20086,R,ugm-3,28.75326,R,ugm-3
10-01-2018,16:00,2.46364,R,ugm-3,33.35000,R,ugm-3,37.12752,R,ugm-3
10-01-2018,17:00,3.75862,R,ugm-3,46.61232,R,ugm-3,52.37546,R,ugm-3
10-01-2018,18:00,21.76211,R,ugm-3,66.83265,R,ugm-3,100.20075,R,ugm-3
10-01-2018,19:00,99.42978,R,ugm-3,66.14534,R,ugm-3,218.60221,R,ugm-3
10-01-2018,20:00,128.61438,R,ugm-3,64.09047,R,ugm-3,261.29645,R,ugm-3
10-01-2018,21:00,141.91170,R,ugm-3,66.74287,R,ugm-3,284.33778,R,ugm-3
10-01-2018,22:00,116.45414,R,ugm-3,57.37110,R,ugm-3,235.93162,R,ugm-3
10-01-2018,23:00,101.35647,R,ugm-3,57.76963,R,ugm-3,213.18072,R,ugm-3
10-01-2018,24:00,89.44890,R,ugm-3,50.75963,R,ugm-3,187.91271,R,ugm-3
11-01-2018,01:00,61.30260,R,ugm-3,37.15122,R,ugm-3,131.14723,R,ugm-3
11-01-2018,02:00,59.74370,R,ugm-3,41.73697,R,ugm-3,133.34271,R,ugm-3
11-01-2018,03:00,42.15344,R,ugm-3,38.76273,R,ugm-3,103.39710,R,ugm-3
11-01-2018,04:00,18.20118,R,ugm-3,36.60007,R,ugm-3,64.50817,R,ugm-3
11-01-2018,05:00,7.71022,R,ugm-3,41.01447,R,ugm-3,52.83664,R,ugm-3
11-01-2018,06:00,2.65434,R,ugm-3,38.79023,R,ugm-3,42.86016,R,ugm-3
11-01-2018,07:00,6.50945,R,ugm-3,39.27184,R,ugm-3,49.25286,R,ugm-3
11-01-2018,08:00,13.96688,R,ugm-3,38.05591,R,ugm-3,59.47149,R,ugm-3
11-01-2018,09:00,22.84628,R,ugm-3,37.66229,R,ugm-3,72.69276,R,ugm-3
11-01-2018,10:00,22.84628,R,ugm-3,33.73950,R,ugm-3,68.76997,R,ugm-3
11-01-2018,11:00,25.12143,R,ugm-3,31.80073,R,ugm-3,70.31971,R,ugm-3
11-01-2018,12:00,24.58424,R,ugm-3,28.89533,R,ugm-3,66.59064,R,ugm-3
11-01-2018,13:00,14.56727,R,ugm-3,26.91669,R,ugm-3,49.25286,R,ugm-3
11-01-2018,14:00,6.60425,R,ugm-3,23.62903,R,ugm-3,33.75540,R,ugm-3
11-01-2018,15:00,5.15068,R,ugm-3,23.58161,R,ugm-3,31.47921,R,ugm-3
11-01-2018,16:00,6.16186,R,ugm-3,27.06783,R,ugm-3,36.51589,R,ugm-3
11-01-2018,17:00,6.69905,R,ugm-3,31.47455,R,ugm-3,41.74628,R,ugm-3
11-01-2018,18:00,9.29019,R,ugm-3,35.25025,R,ugm-3,49.49501,R,ugm-3
11-01-2018,19:00,7.29943,R,ugm-3,35.97808,R,ugm-3,47.17039,R,ugm-3
11-01-2018,20:00,3.98151,R,ugm-3,33.36519,R,ugm-3,39.47009,R,ugm-3
11-01-2018,21:00,2.49634,R,ugm-3,28.57170,R,ugm-3,32.39937,R,ugm-3
11-01-2018,22:00,1.83276,R,ugm-3,26.82870,R,ugm-3,29.63889,R,ugm-3
11-01-2018,23:00,0.91638,R,ugm-3,23.00340,R,ugm-3,24.40850,R,ugm-3
11-01-2018,24:00,0.53719,R,ugm-3,19.08087,R,ugm-3,19.90455,R,ugm-3
12-01-2018,01:00,0.92733,R,ugm-3,19.89741,R,ugm-3,21.31930,R,ugm-3
12-01-2018,02:00,0.67442,R,ugm-3,19.05773,R,ugm-3,20.09182,R,ugm-3
12-01-2018,03:00,0.41098,R,ugm-3,13.85728,R,ugm-3,14.48743,R,ugm-3
12-01-2018,04:00,0.41098,R,ugm-3,11.24082,R,ugm-3,11.87097,R,ugm-3
12-01-2018,05:00,0.53743,R,ugm-3,15.40769,R,ugm-3,16.23174,R,ugm-3
12-01-2018,06:00,0.79034,R,ugm-3,16.57040,R,ugm-3,17.78223,R,ugm-3
12-01-2018,07:00,2.97167,R,ugm-3,26.40494,R,ugm-3,30.96143,R,ugm-3
12-01-2018,08:00,36.00777,R,ugm-3,38.73913,R,ugm-3,93.95027,R,ugm-3
12-01-2018,09:00,47.60992,R,ugm-3,39.11927,R,ugm-3,112.12013,R,ugm-3
12-01-2018,10:00,59.97080,R,ugm-3,41.87311,R,ugm-3,133.82705,R,ugm-3
12-01-2018,11:00,43.59501,R,ugm-3,42.90119,R,ugm-3,109.74593,R,ugm-3
12-01-2018,12:00,42.36208,R,ugm-3,50.02457,R,ugm-3,114.97885,R,ugm-3
12-01-2018,13:00,30.22250,R,ugm-3,54.24780,R,ugm-3,100.58832,R,ugm-3
12-01-2018,14:00,17.79840,R,ugm-3,52.70533,R,ugm-3,79.99582,R,ugm-3
12-01-2018,15:00,11.22279,R,ugm-3,50.43228,R,ugm-3,67.64032,R,ugm-3
12-01-2018,16:00,15.17448,R,ugm-3,57.60077,R,ugm-3,80.86797,R,ugm-3
12-01-2018,17:00,26.42888,R,ugm-3,65.05526,R,ugm-3,105.57898,R,ugm-3
12-01-2018,18:00,22.85656,R,ugm-3,66.26889,R,ugm-3,101.31512,R,ugm-3
12-01-2018,19:00,32.59351,R,ugm-3,65.58427,R,ugm-3,115.56028,R,ugm-3
12-01-2018,20:00,2.02326,R,ugm-3,39.19713,R,ugm-3,42.29942,R,ugm-3
12-01-2018,21:00,1.48583,R,ugm-3,32.60788,R,ugm-3,34.88612,R,ugm-3
12-01-2018,22:00,1.26454,R,ugm-3,29.36167,R,ugm-3,31.30061,R,ugm-3
12-01-2018,23:00,0.85357,R,ugm-3,21.65792,R,ugm-3,22.96670,R,ugm-3
12-01-2018,24:00,0.69550,R,ugm-3,17.92714,R,ugm-3,18.99356,R,ugm-3
13-01-2018,01:00,0.46387,R,ugm-3,16.86949,R,ugm-3,17.58075,R,ugm-3
13-01-2018,02:00,0.37953,R,ugm-3,17.06345,R,ugm-3,17.64539,R,ugm-3
13-01-2018,03:00,0.37953,R,ugm-3,15.80306,R,ugm-3,16.38501,R,ugm-3
13-01-2018,04:00,0.41116,R,ugm-3,14.78504,R,ugm-3,15.41548,R,ugm-3
13-01-2018,05:00,0.44279,R,ugm-3,16.19084,R,ugm-3,16.86977,R,ugm-3
13-01-2018,06:00,0.63255,R,ugm-3,18.22673,R,ugm-3,19.19663,R,ugm-3
13-01-2018,07:00,0.94883,R,ugm-3,22.00770,R,ugm-3,23.46255,R,ugm-3
13-01-2018,08:00,1.58139,R,ugm-3,30.05439,R,ugm-3,32.47915,R,ugm-3
13-01-2018,09:00,3.66881,R,ugm-3,35.43403,R,ugm-3,41.05946,R,ugm-3
13-01-2018,10:00,9.67808,R,ugm-3,38.48447,R,ugm-3,53.32398,R,ugm-3
13-01-2018,11:00,20.46313,R,ugm-3,41.28969,R,ugm-3,72.66604,R,ugm-3
13-01-2018,12:00,18.81849,R,ugm-3,37.17017,R,ugm-3,66.02478,R,ugm-3
13-01-2018,13:00,4.11160,R,ugm-3,27.09583,R,ugm-3,33.40020,R,ugm-3
13-01-2018,14:00,3.89021,R,ugm-3,23.41176,R,ugm-3,29.37667,R,ugm-3
13-01-2018,15:00,2.97300,R,ugm-3,24.76965,R,ugm-3,29.32819,R,ugm-3
13-01-2018,16:00,3.35254,R,ugm-3,29.27772,R,ugm-3,34.41821,R,ugm-3
13-01-2018,17:00,2.02417,R,ugm-3,26.41841,R,ugm-3,29.52209,R,ugm-3
13-01-2018,18:00,1.54976,R,ugm-3,24.52811,R,ugm-3,26.90437,R,ugm-3
13-01-2018,19:00,1.61301,R,ugm-3,24.81893,R,ugm-3,27.29218,R,ugm-3
13-01-2018,20:00,3.13114,R,ugm-3,34.22244,R,ugm-3,39.02346,R,ugm-3
13-01-2018,21:00,4.23811,R,ugm-3,40.32980,R,ugm-3,46.82815,R,ugm-3
13-01-2018,22:00,1.35999,R,ugm-3,24.91603,R,ugm-3,27.00132,R,ugm-3
13-01-2018,23:00,1.04371,R,ugm-3,19.38992,R,ugm-3,20.99026,R,ugm-3
13-01-2018,24:00,1.07534,R,ugm-3,23.46191,R,ugm-3,25.11075,R,ugm-3
14-01-2018,01:00,0.80160,R,ugm-3,20.30479,R,ugm-3,21.53389,R,ugm-3
14-01-2018,02:00,0.71722,R,ugm-3,22.63282,R,ugm-3,23.73254,R,ugm-3
14-01-2018,03:00,0.69612,R,ugm-3,17.84753,R,ugm-3,18.91490,R,ugm-3
14-01-2018,04:00,0.60120,R,ugm-3,16.82908,R,ugm-3,17.75091,R,ugm-3
14-01-2018,05:00,0.44299,R,ugm-3,15.37418,R,ugm-3,16.05341,R,ugm-3
14-01-2018,06:00,0.63284,R,ugm-3,16.29557,R,ugm-3,17.26591,R,ugm-3
14-01-2018,07:00,0.72777,R,ugm-3,16.15002,R,ugm-3,17.26591,R,ugm-3
14-01-2018,08:00,0.63284,R,ugm-3,17.41106,R,ugm-3,18.38140,R,ugm-3
14-01-2018,09:00,0.79105,R,ugm-3,23.81294,R,ugm-3,25.02587,R,ugm-3
14-01-2018,10:00,2.91106,R,ugm-3,33.41474,R,ugm-3,37.87830,R,ugm-3
14-01-2018,11:00,4.30330,R,ugm-3,34.14148,R,ugm-3,40.73978,R,ugm-3
14-01-2018,12:00,2.18329,R,ugm-3,22.35719,R,ugm-3,25.70486,R,ugm-3
14-01-2018,13:00,2.40479,R,ugm-3,22.84207,R,ugm-3,26.52936,R,ugm-3
14-01-2018,14:00,3.86031,R,ugm-3,26.76976,R,ugm-3,32.68883,R,ugm-3
14-01-2018,15:00,3.89196,R,ugm-3,33.17171,R,ugm-3,39.13929,R,ugm-3
14-01-2018,16:00,7.08779,R,ugm-3,45.34341,R,ugm-3,56.21120,R,ugm-3
14-01-2018,17:00,6.61316,R,ugm-3,50.33914,R,ugm-3,60.47918,R,ugm-3
14-01-2018,18:00,6.17018,R,ugm-3,48.01139,R,ugm-3,57.47219,R,ugm-3
14-01-2018,19:00,6.70809,R,ugm-3,52.23058,R,ugm-3,62.51617,R,ugm-3
14-01-2018,20:00,1.99344,R,ugm-3,33.46374,R,ugm-3,36.52030,R,ugm-3
14-01-2018,21:00,1.67702,R,ugm-3,26.81945,R,ugm-3,29.39084,R,ugm-3
14-01-2018,22:00,2.46807,R,ugm-3,37.82846,R,ugm-3,41.61278,R,ugm-3
14-01-2018,23:00,2.37314,R,ugm-3,45.78247,R,ugm-3,49.42124,R,ugm-3
14-01-2018,24:00,1.07583,R,ugm-3,27.88677,R,ugm-3,29.53634,R,ugm-3
15-01-2018,01:00,0.63312,R,ugm-3,18.76197,R,ugm-3,19.73274,R,ugm-3
15-01-2018,02:00,0.37987,R,ugm-3,15.98010,R,ugm-3,16.56256,R,ugm-3
15-01-2018,03:00,0.56981,R,ugm-3,12.27607,R,ugm-3,13.14977,R,ugm-3
15-01-2018,04:00,0.34822,R,ugm-3,9.12218,R,ugm-3,9.65610,R,ugm-3
15-01-2018,05:00,0.44319,R,ugm-3,9.51032,R,ugm-3,10.18986,R,ugm-3
15-01-2018,06:00,0.53815,R,ugm-3,9.55879,R,ugm-3,10.38395,R,ugm-3
15-01-2018,07:00,0.98134,R,ugm-3,14.89612,R,ugm-3,16.40082,R,ugm-3
15-01-2018,08:00,1.70943,R,ugm-3,19.45694,R,ugm-3,22.07803,R,ugm-3
15-01-2018,09:00,2.43752,R,ugm-3,24.40594,R,ugm-3,28.14342,R,ugm-3
15-01-2018,10:00,3.16561,R,ugm-3,33.23679,R,ugm-3,38.09066,R,ugm-3
15-01-2018,11:00,3.73542,R,ugm-3,36.97279,R,ugm-3,42.70036,R,ugm-3
15-01-2018,12:00,3.48218,R,ugm-3,31.10161,R,ugm-3,36.44087,R,ugm-3
15-01-2018,13:00,2.97568,R,ugm-3,27.22001,R,ugm-3,31.78265,R,ugm-3
15-01-2018,14:00,1.70943,R,ugm-3,12.51813,R,ugm-3,15.13922,R,ugm-3
15-01-2018,15:00,1.42453,R,ugm-3,12.76088,R,ugm-3,14.94513,R,ugm-3
15-01-2018,16:00,1.29790,R,ugm-3,15.42972,R,ugm-3,17.41981,R,ugm-3
15-01-2018,17:00,0.94968,R,ugm-3,15.52694,R,ugm-3,16.98310,R,ugm-3
15-01-2018,18:00,1.04465,R,ugm-3,13.92563,R,ugm-3,15.52740,R,ugm-3
15-01-2018,19:00,1.20293,R,ugm-3,13.73146,R,ugm-3,15.57593,R,ugm-3